Tracking 18957 objects as of 23-Jan-2018
HD Live streaming from Space Station
objects crossing your sky now

FENGYUN 1C DEB

Track FENGYUN 1C DEB now!
10-day predictions


NORAD ID: 35145
Int'l Code: 1999-025DLZ
Perigee: 480.6 km
Apogee: 639.2 km
Inclination: 99.6 °
Period: 95.7 minutes
Semi major axis: 6930 km
RCS: 0.0097 m2 (small)
Launch date: May 10, 1999
Source: People's Republic of China (PRC)
Launch site: Taiyaun Space Center, China (TSC)

Note: This is SATELLITE DEBRIS
aabbcc
Your satellite tracking list
Your tracking list is empty




NASA's NSSDC Master Catalog

Two Line Element Set (TLE):
1 35145U 99025DLZ 18023.51044405  .00004011  00000-0  25344-3 0  9997
2 35145  99.5988 123.9853 0114359 195.1940 164.5835 15.04593136540908
Source of the keplerian elements: AFSPC